Weather History for Kodiak, AK

Change the Weather History Date:

Tuesday, October 11, 2011

  Actual Average Record
Temperature  
Mean Temperature 43 °F 42 °F  
Max Temperature 47 °F 48 °F 58 °F (1983)
Min Temperature 38 °F 36 °F 26 °F (1984)
Degree Days  
Heating Degree Days 22 23  
Month to date heating degree days 237 240  
Since 1 July heating degree days 1329 1338  
Cooling Degree Days 0    
Month to date cooling degree days 0  
Year to date cooling degree days 0  
Moisture  
Dew Point 29 °F    
Average Humidity 0    
Maximum Humidity 0    
Minimum Humidity 0    
Precipitation  
Precipitation 0.00 in 0.27 in 1.53 in (1982)
Month to date precipitation 1.47 3.07  
Year to date precipitation 56.34 57.21  
Snow  
Snow 0.00 in 0.00 in 0.30 in (1955)
Month to date snowfall 0.0 0.1  
Since 1 July snowfall 0.0 0.1  
Since 1 September snowfall 0.0 0.1  
Snow Depth 0.00 in    
Sea Level Pressure  
Sea Level Pressure 29.59 in    
Wind  
Wind Speed 11 mph (WNW)    
Max Wind Speed 18 mph    
Max Gust Speed 25 mph    
Visibility 10 miles    
Events      
T = Trace of Precipitation, MM = Missing Value Source: NWS Daily Summary

Daily Weather History Graph

Daily Weather History Graph

Search for Another Location

Airport:

Trip Planner

Search our weather history database for the weather conditions in past years. The results will help you decide how hot, cold, wet, or windy it might be!

Date:

Astronomy

Oct. 11, 2011 Rise Set
Actual Time 8:35 AM AKDT 7:16 PM AKDT
Civil Twilight 7:56 AM AKDT 7:55 PM AKDT
Nautical Twilight 7:11 AM AKDT 8:40 PM AKDT
Astronomical Twilight 6:25 AM AKDT 9:26 PM AKDT
Moon 6:37 PM AKDT (10/11) 8:34 AM AKDT (10/11)
Length of Visible Light 11h 59m
Length of Day
10h 40m
Full, 100% of the Moon is Illuminated
Oct 11
Full
Oct 11
Full
Oct 19
Last Quarter
Oct 26
New
Nov 2
First Quarter

Hourly Weather History & Observations

Time (AKDT) Temp. Windchill Dew Point Humidity Pressure Visibility Wind Dir Wind Speed Gust Speed Precip Events Conditions
12:53 AM 42.1 °F 37.1 °F 34.0 °F 73% 29.52 in 10.0 mi WNW 8.1 mph - N/A   Clear
1:53 AM 42.1 °F 36.6 °F 33.1 °F 70% 29.52 in 10.0 mi NW 9.2 mph - N/A   Clear
2:53 AM 41.0 °F 34.7 °F 32.0 °F 70% 29.52 in 10.0 mi NW 10.4 mph - N/A   Clear
3:53 AM 41.0 °F 34.3 °F 32.0 °F 70% 29.51 in 10.0 mi NW 11.5 mph - N/A   Clear
4:53 AM 39.9 °F 35.1 °F 30.9 °F 70% 29.51 in 10.0 mi WNW 6.9 mph - N/A   Clear
5:53 AM 39.9 °F 35.8 °F 30.9 °F 70% 29.52 in 10.0 mi NW 5.8 mph - N/A   Clear
6:53 AM 39.9 °F 33.9 °F 30.9 °F 70% 29.53 in 10.0 mi WNW 9.2 mph - N/A   Clear
7:53 AM 39.0 °F 33.4 °F 30.0 °F 70% 29.54 in 10.0 mi NW 8.1 mph - N/A   Partly Cloudy
8:53 AM 39.9 °F 32.1 °F 30.0 °F 68% 29.55 in 10.0 mi WNW 13.8 mph - N/A   Scattered Clouds
9:53 AM 42.1 °F 35.2 °F 28.9 °F 60% 29.55 in 10.0 mi WNW 12.7 mph - N/A   Scattered Clouds
10:53 AM 43.0 °F 36.0 °F 28.9 °F 58% 29.56 in 10.0 mi WNW 13.8 mph - N/A   Scattered Clouds
11:53 AM 45.0 °F 38.5 °F 30.0 °F 56% 29.58 in 10.0 mi West 13.8 mph - N/A   Scattered Clouds
12:53 PM 46.0 °F 41.0 °F 28.9 °F 51% 29.59 in 10.0 mi NW 10.4 mph - N/A   Scattered Clouds
1:53 PM 46.4 °F 40.4 °F 30.2 °F 53% 29.59 in 10.0 mi West 13.8 mph - N/A   Scattered Clouds
2:53 PM 46.0 °F 39.9 °F 28.9 °F 51% 29.60 in 10.0 mi WNW 13.8 mph 19.6 mph N/A   Mostly Cloudy
3:53 PM 46.0 °F 38.8 °F 28.9 °F 51% 29.61 in 10.0 mi West 18.4 mph 23.0 mph N/A   Mostly Cloudy
4:53 PM 46.0 °F 41.0 °F 28.9 °F 51% 29.61 in 10.0 mi WNW 10.4 mph 17.3 mph N/A   Mostly Cloudy
5:53 PM 45.0 °F 38.2 °F 28.0 °F 52% 29.62 in 10.0 mi WNW 15.0 mph 20.7 mph N/A   Mostly Cloudy
6:53 PM 41.0 °F 37.1 °F 27.0 °F 57% 29.65 in 10.0 mi SSW 5.8 mph - N/A   Mostly Cloudy
7:53 PM 39.9 °F 34.5 °F 27.0 °F 60% 29.67 in 10.0 mi SW 8.1 mph - N/A   Mostly Cloudy
8:53 PM 39.0 °F 32.8 °F 27.0 °F 62% 29.68 in 10.0 mi West 9.2 mph 20.7 mph N/A   Mostly Cloudy
9:53 PM 39.9 °F 32.5 °F 25.0 °F 55% 29.71 in 10.0 mi WNW 12.7 mph 24.2 mph N/A   Scattered Clouds
10:53 PM 39.9 °F 31.1 °F 26.1 °F 58% 29.72 in 10.0 mi WNW 17.3 mph 25.3 mph N/A   Scattered Clouds
11:53 PM 39.9 °F 32.9 °F 26.1 °F 58% 29.74 in 10.0 mi West 11.5 mph - N/A   Scattered Clouds